Back to catalog

COSMOS 2109

GLONASS

AliveNavigationMEO
NORAD 21006·PAYLOAD·🇷🇺 Russia

Launched Dec 8, 1990 from Baikonur Cosmodrome

Loading…

Next Passes (next 24 hours)

TLE

FreshSource: Space-Track

Epoch: Sep 13, 2026, 18:05 UTC

1 21006U 90110A   26256.75351463 -.00000012  00000-0  00000-0 0  9999
2 21006  64.9816  68.0988 0078844 201.0846 159.4631  2.13101847278379

Track COSMOS 2109 in real time with AllMySat

Download on the App Store